Weather Service Report


814 
ASUS43 KLOT 202010
RWRIL 

ILLINOIS REGIONAL WEATHER ROUNDUP
NATIONAL WEATHER SERVICE CHICAGO/ROMEOVILLE IL
200 PM CST SAT DEC 20 2014

NOTE: "FAIR" INDICATES FEW OR NO CLOUDS BELOW 12,000 FEET WITH NO
SIGNIFICANT WEATHER AND/OR OBSTRUCTIONS TO VISIBILITY.

* THESE STATIONS ARE NOT UNDER NWS QUALITY CONTROL. THEY ALSO MAY NOT
  REPORT WEATHER SUCH AS PRECIPITATION OR FOG.

ILZ001-002-007-009-015-016-024-202100-
NORTHWEST ILLINOIS
  
CITY           SKY/WX    TMP DP  RH WIND       PRES   REMARKS
MOLINE         CLOUDY    34  27  75 SE5       30.20F HAZE    WCI  30  
STERLING*      CLOUDY    34  25  69 SE5       30.22F WCI  30          
SAVANNA*       CLOUDY    33  26  73 SE7       30.21F WCI  27          
$$

ILZ003-004-008-010-011-017-018-202100-
NORTH CENTRAL ILLINOIS
  
CITY           SKY/WX    TMP DP  RH WIND       PRES   REMARKS
ROCKFORD       FLURRIES  31  24  75 S6        30.24F WCI  25          
FREEPORT*      CLOUDY    30  25  81 SE5       30.24S WCI  26          
ROCHELLE*      CLOUDY    31  26  81 S6        30.23F WCI  25          
DE KALB*       CLOUDY    30  24  79 S6        30.22F WCI  24          
PERU*          CLOUDY    33  29  83 S7        30.24S WCI  27          
$$

ILZ005-006-012>014-019>023-202100-
NORTHEAST ILLINOIS
  
CITY           SKY/WX    TMP DP  RH WIND       PRES   REMARKS
CHICAGO-OHARE  CLOUDY    32  23  69 SW7       30.23F WCI  26          
CHICAGO-MIDWAY FLURRIES  34  25  69 SW9       30.24F WCI  27          
AURORA         CLOUDY    32  25  75 S5        30.23F HAZE    WCI  27  
LANSING*       CLOUDY    33  26  76 SW8       30.25F WCI  25          
JOLIET*        CLOUDY    32  26  76 S5        30.24F WCI  28          
WAUKEGAN       CLOUDY    32  24  72 CALM      30.23F                  
DUPAGE AIRPORT CLOUDY    32  24  72 S6        30.22F WCI  26          
KANKAKEE*      CLOUDY    33  27  76 SW7       30.26F WCI  27          
WHEELING       CLOUDY    33  23  66 SW7       30.25F WCI  27          
MORRIS*        CLOUDY    33  28  82 S7        30.23F WCI  27          
ROMEOVILLE*    CLOUDY    32  25  73 SW7       30.24F WCI  26          
NORTHERLY ISL    N/A     33  24  70 SW9         N/A  WCI  25          
$$

LMZ740>746-202100-
SOUTHERN LAKE MICHIGAN
  
STATION/POSITION SKY/WX   TEMP    WIND        PRES    VSBY  WAVE
                          AIR SEA DIR/SP/G                  HT/PER
                          (F)     (DEG/KT/KT) (MB)    (MI)  (FT/S)
WAUKEGAN HARBOR            32     260/  6/  9   N/A
HARRISON CRIB              33     220/ 11/ 16   N/A
BURNHAM HARBOR             33     230/  9/  9   N/A
CALUMET HARBOR             33     220/  4/ 10 1023.0R
$$

ILZ025>027-034>036-040-047-049-050-058-095>099-202100-
WEST-CENTRAL ILLINOIS
  
CITY           SKY/WX    TMP DP  RH WIND       PRES   REMARKS
QUINCY         CLOUDY    36  32  85 S6        30.18F FOG     WCI  31  
GALESBURG*     CLOUDY    34  29  83 SE5       30.20S WCI  30          
MACOMB*        CLOUDY    36  32  85 SE6       30.22F FOG     WCI  31  
JACKSONVILLE*  CLOUDY    40  33  76 SE6       30.21F                  
PITTSFIELD*    CLOUDY    37  33  86 SE5       30.21F FOG     WCI  33  
$$

ILZ028>032-037-038-041>044-048-051>054-059>061-202100-
CENTRAL ILLINOIS
  
CITY           SKY/WX    TMP DP  RH WIND       PRES   REMARKS
PONTIAC        CLOUDY    34  29  80 S6        30.24F WCI  29          
BLOOMINGTON    PTSUNNY   33  28  82 S8        30.24F WCI  26          
DECATUR        CLOUDY    35  28  75 S6        30.24F WCI  30          
PEORIA         CLOUDY    36  26  67 S7        30.23F WCI  30          
LACON*         CLOUDY    33  25  71 SE5       30.22F WCI  29          
LINCOLN*       CLOUDY    36  30  77 S7        30.24F WCI  31          
SPRINGFIELD    CLOUDY    38  30  73 S7        30.23F WCI  33          
TAYLORVILLE    CLOUDY    36  30  80 SE5       30.22F WCI  32          
$$

ILZ033-039-045-046-055>057-062-063-202100-
EAST-CENTRAL ILLINOIS
  
CITY           SKY/WX    TMP DP  RH WIND       PRES   REMARKS
CHAMPAIGN      CLOUDY    34  26  72 S7        30.25S WCI  28          
DANVILLE*      CLOUDY    33  26  75 S5        30.23R WCI  29          
RANTOUL*       CLOUDY    35  28  76 SE6       30.24F WCI  30          
MATTOON        CLOUDY    35  25  66 SE5       30.23F WCI  31          
PARIS*         CLOUDY    34  29  81 CALM      30.26S                  
$$

ILZ079-100>102-202100-
SOUTHWEST ILLINOIS
  
CITY           SKY/WX    TMP DP  RH WIND       PRES   REMARKS
BELLEVILLE     CLOUDY    41  33  74 SE7       30.22F                  
CAHOKIA*       CLOUDY    42  34  73 S6        30.23F                  
SPARTA*        CLOUDY    40  32  73 CALM      30.24F                  
$$

ILZ064>066-069>071-074>076-080>082-084>086-088>090-092>094-202100-
SOUTH-CENTRAL ILLINOIS
  
CITY           SKY/WX    TMP DP  RH WIND       PRES   REMARKS
CARBONDALE     CLOUDY    41  29  62 E3        30.24F                  
CAIRO*         CLOUDY    44  31  60 CALM      30.24F                  
EFFINGHAM*     CLOUDY    37  26  64 E3        30.26F                  
MARION         CLOUDY    41  30  65 NE7       30.26F                  
MT. VERNON     CLOUDY    39  27  60 S5        30.25F                  
CENTRALIA*     CLOUDY    38  28  66 SE5       30.24S WCI  35          
SALEM*         CLOUDY    41  28  60 CALM      30.24F                  
METROPOLIS*    SUNNY     44  31  60 CALM      30.24S                  
$$

ILZ067-068-072-073-078-083-087-091-202100-
SOUTHEAST ILLINOIS
  
CITY           SKY/WX    TMP DP  RH WIND       PRES   REMARKS
LAWRENCEVILLE  CLOUDY    36  27  69 NE5       30.27F WCI  32          
FLORA*         SUNNY     37  28  70 SE7       30.26F WCI  32          
FAIRFIELD*     PTSUNNY   37  28  68 E3        30.25F                  
HARRISBURG*    PTSUNNY   39  28  64 CALM      30.27S                  
ROBINSON*      CLOUDY    35  27  72 CALM      30.27F                  
CARMI*         CLOUDY    40  30  67 E5        30.26F                  
$$

ABBREVIATIONS USED IN REMARKS
   TC - TEMPERATURE IN CELSIUS
  WCI - WIND CHILL INDEX
   HX - HEAT INDEX
  VSB - VISIBILITY
$$


Return to Home page


Western Regional Climate Center, wrcc@dri.edu